Погода в Коцебу

США     66°53′48″N   162°35′09″W
темп.,
°C
ветер,
м/с
пор.,
м/с
влажн.,
%
обл.,
%
осадки,
мм/ч
давл.,
гПа
погр.,
м
31 июля, сб
сб3101:00+10юв71199100 4.4 1004306
04:00+10юв91498100 9.0 1001357
07:00+10вюв111799100 7.5 998439
10:00+12ююв111889100 11.6 997473
13:00+11ю121787100 0.1 999498
16:00+10ю101488100 0.3 1001430
19:00+10ююз61186100 0.3 1003380
22:00+8з6694100 0.3 1006278
1 августа, вс
вс101:00+7з459291 0.0 1009291
04:00+7з1291100 0.0 1010154
07:00+7зюз1191100 0.0 1011114
10:00+8ссв1187100 0.0 1011142
13:00+9в2384100 0.2 1011268
16:00+9в2292100 0.8 1012116
19:00+10всв3495100 0.6 1011102
22:00+9всв4596100 2.8 1011118
2 августа, пн
пн201:00+10всв4697100 1.6 1012132
04:00+10в5998100 3.1 1012169
07:00+11вюв5899100 2.3 1013126
10:00+11в6999100 4.6 1014138
13:00+12в71098100 0.6 1015169
16:00+13вюв71196100 0.6 1017216
19:00+14вюв589776 0.1 1018133
22:00+14в579576 0.1 101877
3 августа, вт
вт301:00+13в459573 0.0 101941
04:00+13всв449580 0.0 101927
07:00+14всв339270 0.0 101926
10:00+15в458879 0.0 1020115
13:00+16в458247 0.0 1020288
16:00+17вюв457869 0.0 1019357
19:00+18юв237729 0.0 1018318
22:00+17всв118225 0.0 101712
4 августа, ср
ср401:00+17всв33805 0.0 101612
04:00+15всв44892 0.0 101618
07:00+15всв44895 0.0 101535
10:00+16в711785 0.0 1014252
13:00+17в711655 0.0 1013324
16:00+18в710665 0.0 1012464
19:00+18вюв610631 0.0 1011490
22:00+16вюв57671 0.0 101173